Tracking 31027 objects as of 19-Jul-2025
HD Live streaming from Space Station
objects crossing your sky now

COSMOS 394

Track COSMOS 394 now!
10-day predictions
COSMOS 394 is classified as:


NORAD ID: 4922
Int'l Code: 1971-010A
Perigee: 433.7 km
Apogee: 448.5 km
Inclination: 65.8 °
Period: 93.3 minutes
Semi major axis: 6812 km
RCS: 1.2944 m2 (large)
Launch date: February 9, 1971
Source: Commonwealth of Independent States (former USSR) (CIS)
Launch site: PLESETSK MISSILE AND SPACE COMPLEX (PKMTR)
Your satellite tracking list
FENGYUN 1C DEB
Track 1 satellite(s)




NASA's NSSDC Master Catalog

Two Line Element Set (TLE):
1 04922U 71010A   25199.49496642  .00003675  00000-0  84951-4 0  9998
2 04922  65.8213 279.0532 0010899 321.3334  38.7033 15.44127111  6421
Source of the keplerian elements: AFSPC